Home   Weather   Kapadvanj   Past weeks
Flag for India

Past Weather in Kapadvanj, Gujarat, India — Yesterday and Last 2 Weeks

Now
90 °F

Clear.


Feels Like: 88 °F
Forecast: 110 / 83 °F
Wind: 6 mph from West

Location: Ahmadabad Airport

Current Time: May 27, 2019 at 3:48:03 am

Latest Report: May 27, 2019 at 3:00 am


Visibility: 2 mi

Pressure: 29.65 "Hg

Humidity: 31%

Dew Point: 55 °F

Location of KapadvanjLocation

Past Weather in Kapadvanj — Graph

°F

Kapadvanj Temperature Yesterday

Maximum temperature yesterday: 109 °F (at 3:00 pm)
Minimum temperature yesterday: 86 °F (at 6:00 am)
Average temperature yesterday: 97 °F

High & Low Weather Summary for the Past Weeks

 TemperatureHumidityPressure
High109 °F (May 13, 5:00 pm)79% (May 15, 7:00 am)29.86 "Hg (May 15, 7:00 am)
Low79 °F (May 14, 6:00 am)16% (May 13, 4:30 pm)29.59 "Hg (May 26, 4:30 pm)
Average95 °F42%29.73 "Hg
* Reported May 12 2:30 am — May 27 2:30 am, Kapadvanj. Weather by CustomWeather, © 2019

Note: Actual official high and low records may vary slightly from our data, if they occured in-between our weather recording intervals... More about our weather records

Advertising

Kapadvanj Weather History for the Previous 24 Hours

Scroll right to see more
 ConditionsComfort  
Time TempWeatherWind HumidityBarometerVisibility
2:30 am
Mon, May 27
90 °FClear.6 mph29%29.65 "Hg2 mi
2:00 am90 °FClear.3 mph31%29.65 "Hg2 mi
1:30 am91 °FClear.6 mph34%29.65 "Hg2 mi
1:00 am91 °FClear.6 mph46%29.65 "Hg2 mi
12:30 am91 °FClear.6 mph52%29.65 "Hg2 mi
12:00 am91 °FClear.7 mph56%29.65 "Hg2 mi
11:30 pm
Sun, May 26
93 °FClear.7 mph53%29.68 "Hg2 mi
11:00 pm93 °FClear.3 mph53%29.68 "Hg2 mi
10:30 pm93 °FClear.6 mph53%29.68 "Hg2 mi
10:00 pm95 °FClear.9 mph47%29.68 "Hg2 mi
9:30 pm95 °FClear.10 mph44%29.65 "Hg2 mi
9:00 pm95 °FClear.6 mph50%29.65 "Hg2 mi
8:30 pm97 °FPassing clouds.6 mph44%29.65 "Hg2 mi
8:00 pm102 °FPassing clouds.6 mph31%29.62 "Hg2 mi
7:30 pm106 °FScattered clouds.7 mph20%29.62 "Hg2 mi
7:00 pm106 °FPassing clouds.7 mphN/A29.59 "Hg2 mi
6:30 pm108 °FPassing clouds.7 mph20%29.59 "Hg3 mi
6:00 pm109 °FPassing clouds.8 mph19%29.59 "Hg4 mi
5:30 pm109 °FPassing clouds.5 mph18%29.59 "Hg4 mi
5:00 pm109 °FPassing clouds.7 mph18%29.59 "Hg4 mi
4:30 pm109 °FPassing clouds.8 mph19%29.59 "Hg4 mi
4:00 pm109 °FScattered clouds.12 mph19%29.62 "Hg4 mi
3:30 pm109 °FScattered clouds.5 mph19%29.62 "Hg4 mi
3:00 pm109 °FScattered clouds.9 mph19%29.62 "Hg4 mi
2:30 pm108 °FScattered clouds.7 mph23%29.65 "Hg4 mi
2:00 pm108 °FScattered clouds.7 mph23%29.65 "Hg4 mi
1:30 pm106 °FScattered clouds.6 mph28%29.68 "Hg3 mi
1:00 pm106 °FClear.5 mph30%29.68 "Hg3 mi
12:30 pm102 °FClear.6 mph35%29.71 "Hg3 mi
12:00 pm102 °FClear.6 mph37%29.71 "Hg3 mi
11:30 am100 °FClear.6 mph40%29.71 "Hg3 mi
11:00 am100 °FClear.6 mph42%29.71 "Hg2 mi
10:30 am97 °FClear.5 mph42%29.74 "Hg2 mi
10:00 am95 °FClear.6 mph50%29.74 "Hg2 mi
9:30 am93 °FClear.6 mph56%29.74 "Hg2 mi
9:00 am91 °FClear.7 mph59%29.74 "Hg2 mi
8:30 am90 °FClear.6 mph63%29.71 "Hg1 mi
8:00 am90 °FClear.7 mph63%29.71 "Hg1 mi
7:30 am88 °FClear.7 mph62%29.71 "Hg1 mi
7:00 am88 °FClear.5 mph59%29.68 "Hg1 mi
6:30 am88 °FClear.5 mph52%29.65 "Hg2 mi
6:00 am86 °FClear.5 mph52%29.65 "Hg2 mi
5:30 am88 °FClear.5 mph49%29.65 "Hg2 mi
5:00 am88 °FClear.6 mph49%29.65 "Hg2 mi
4:30 am90 °FClear.6 mph46%29.62 "Hg2 mi
4:00 am90 °FClear.6 mph46%29.62 "Hg2 mi
3:30 am90 °FClear.7 mph46%29.62 "Hg2 mi
3:00 am91 °FClear.6 mph44%29.62 "Hg2 mi
Weather by CustomWeather, © 2019

See weather overview